Salina, KS

3:57 AM CST on February 25, 2018 (GMT -0600)
Salina Municipal

Weather History for KSLN - July, 2013

Change the Weather History Date:

Friday, July 26, 2013

  Actual Average Record
Temperature  
Mean Temperature 77 °F 81 °F  
Max Temperature 87 °F 93 °F 111 °F (1910)
Min Temperature 66 °F 70 °F 56 °F (1926)
Degree Days  
Heating Degree Days 0 0  
Month to date heating degree days 0 0  
Since 1 June heating degree days 7 7  
Since 1 July heating degree days 0 0  
Cooling Degree Days 12 16  
Month to date cooling degree days 418 415  
Year to date cooling degree days 946 868  
Since 1 June cooling degree days 805 740  
Growing Degree Days 26 (Base 50)    
Moisture  
Dew Point 63 °F    
Average Humidity 68    
Maximum Humidity 93    
Minimum Humidity 42    
Precipitation  
Precipitation 0.10 in 0.13 in 2.21 in (1990)
Month to date precipitation 3.02 3.67  
Year to date precipitation 18.50 19.77  
Sea Level Pressure  
Sea Level Pressure 30.04 in    
Wind  
Wind Speed 9 mph (North)    
Max Wind Speed 21 mph    
Max Gust Speed 25 mph    
Visibility 10 miles    
Events Rain , Thunderstorm    
T = Trace of Precipitation, MM = Missing Value Source: NWS Daily Summary

Daily Weather History Graph

Daily Weather History Graph

Search for Another Location

Airport or City:

Trip Planner

Search our weather history database for the weather conditions in past years. The results will help you decide how hot, cold, wet, or windy it might be!

Date:

Astronomy

Jul. 26, 2013 Rise Set
Actual Time 6:26 AM CDT 8:46 PM CDT
Civil Twilight 5:56 AM CDT 9:16 PM CDT
Nautical Twilight 5:19 AM CDT 9:53 PM CDT
Astronomical Twilight 4:38 AM CDT 10:34 PM CDT
Moon 11:05 PM CDT (7/26) 11:01 AM CDT (7/26)
Length of Visible Light 15h 20m
Length of Day
14h 20m
Waning Gibbous, 80% of the Moon is Illuminated
Jul 26
Waning Gibbous
Jul 29
Last Quarter
Aug 6
New
Aug 14
First Quarter
Aug 20
Full

Hourly Weather History & Observations

Time (CDT) Temp. Heat Index Dew Point Humidity Pressure Visibility Wind Dir Wind Speed Gust Speed Precip Events Conditions
12:14 AM 71.6 °F - 68.0 °F 88% 30.04 in 7.0 mi South 12.7 mph - 0.02 in Rain , Thunderstorm Thunderstorms and Rain
12:53 AM 69.1 °F - 66.0 °F 90% 30.01 in 4.0 mi WSW 6.9 mph - 0.12 in Rain Rain
1:53 AM 68.0 °F - 64.9 °F 90% 30.00 in 10.0 mi SSW 8.1 mph - 0.10 in Rain Light Rain
2:53 AM 68.0 °F - 64.9 °F 90% 29.98 in 10.0 mi NE 3.5 mph - 0.00 in   Clear
3:44 AM 66.2 °F - 64.4 °F 94% 30.02 in 10.0 mi North 3.5 mph - N/A   Scattered Clouds
3:53 AM 66.9 °F - 64.9 °F 93% 30.00 in 9.0 mi North 3.5 mph - N/A   Partly Cloudy
4:53 AM 66.0 °F - 64.0 °F 93% 30.00 in 10.0 mi SSW 3.5 mph - N/A   Partly Cloudy
5:53 AM 66.9 °F - 64.0 °F 90% 30.02 in 10.0 mi Calm Calm - N/A   Overcast
6:53 AM 66.9 °F - 64.0 °F 90% 30.03 in 10.0 mi Calm Calm - N/A   Mostly Cloudy
7:53 AM 69.1 °F - 64.9 °F 87% 30.02 in 10.0 mi NW 6.9 mph - N/A   Clear
8:53 AM 71.1 °F - 66.0 °F 84% 30.04 in 10.0 mi NNW 9.2 mph - N/A   Mostly Cloudy
9:03 AM 71.6 °F - 66.2 °F 83% 30.08 in 10.0 mi NNW 8.1 mph - N/A   Mostly Cloudy
9:53 AM 72.0 °F - 66.0 °F 81% 30.06 in 10.0 mi NNE 9.2 mph - N/A   Overcast
10:53 AM 72.0 °F - 66.0 °F 81% 30.08 in 10.0 mi NNE 6.9 mph - N/A   Overcast
11:53 AM 77.0 °F - 69.1 °F 76% 30.08 in 10.0 mi NNE 11.5 mph - N/A   Mostly Cloudy
12:53 PM 82.9 °F 85.0 °F 66.0 °F 56% 30.07 in 10.0 mi NNE 10.4 mph 20.7 mph N/A   Scattered Clouds
1:53 PM 86.0 °F 86.3 °F 62.1 °F 44% 30.05 in 10.0 mi NE 16.1 mph 21.9 mph N/A   Partly Cloudy
2:53 PM 86.0 °F 86.1 °F 61.0 °F 43% 30.04 in 10.0 mi NNE 15.0 mph - N/A   Partly Cloudy
3:53 PM 84.9 °F 85.4 °F 62.1 °F 46% 30.04 in 10.0 mi NNE 12.7 mph 20.7 mph N/A   Partly Cloudy
4:53 PM 86.0 °F 86.1 °F 61.0 °F 43% 30.04 in 10.0 mi North 15.0 mph - N/A   Mostly Cloudy
5:53 PM 84.0 °F 84.0 °F 60.1 °F 44% 30.04 in 10.0 mi NNE 10.4 mph - N/A   Clear
6:53 PM 82.9 °F 83.3 °F 61.0 °F 47% 30.04 in 10.0 mi NNE 10.4 mph - N/A   Clear
7:53 PM 81.0 °F 81.6 °F 60.1 °F 49% 30.05 in 10.0 mi NNE 11.5 mph - N/A   Clear
8:53 PM 75.0 °F - 61.0 °F 62% 30.05 in 10.0 mi North 9.2 mph - N/A   Clear
9:53 PM 73.0 °F - 60.1 °F 64% 30.07 in 10.0 mi North 10.4 mph - N/A   Clear
10:53 PM 72.0 °F - 55.0 °F 55% 30.09 in 10.0 mi NNE 8.1 mph - N/A   Clear
11:53 PM 71.1 °F - 53.1 °F 53% 30.09 in 10.0 mi NNE 8.1 mph - N/A   Clear